CAPE
0 0 0 0 0 0 0 9 29 6 0 0 0 0 2 32 234 87 50 254 548 527 622 731 747 860 867 822 918 933 987 1056 1011 974 1104 1123 1025 864 685 598 638 782 1041 1152 1271 1243 1049 894 940
0 0 0 0 0 0 0 6 1 0 0 0 0 18 16 8 68 23 80 400 464 762 808 899 903 1012 1013 1069 1145 1186 1112 1051 1060 1032 1092 1125 1103 1016 751 518 472 781 938 940 864 656 374 238 213
0 0 0 0 0 0 0 17 15 0 0 10 0 34 22 16 5 6 119 418 863 887 759 843 1046 1200 1296 1384 1411 1426 1265 1125 1105 1245 1362 1340 1130 658 324 325 554 888 853 724 742 716 500 381 314
0 0 0 0 0 0 0 7 0 0 0 25 35 40 26 0 0 0 91 254 335 506 524 580 751 957 1076 1090 1091 1136 1076 906 847 996 1121 937 625 334 373 612 602 394 281 186 167 113 84 112 204
0 0 0 0 1 4 7 1 0 2 7 0 23 103 111 10 0 0 9 33 38 205 286 245 248 347 368 348 376 425 479 517 621 644 561 525 424 327 211 118 60 8 0 0 0 0 0 0 0
0 0 0 0 4 0 0 0 3 42 18 0 44 107 151 15 0 0 0 0 0 61 0 0 0 0 0 0 32 131 193 243 270 348 289 218 143 118 92 30 0 0 0 0 0 0 0 0 0
0 0 0 0 0 0 0 0 0 0 1 1 2 75 118 67 0 0 0 0 0 0 0 0 0 0 0 0 9 68 75 46 21 16 16 17 11 3 0 0 0 0 0 0 0 0 0 0 0
0 0 0 0 0 0 0 0 0 0 0 0 0 10 40 97 0 0 0 0 0 26 84 151 168 327 159 0 0 0 1 0 5 15 13 38 79 37 0 3 0 0 0 0 0 0 0 0 0
0 0 0 0 0 0 0 0 0 0 0 0 0 0 120 90 0 0 0 0 0 79 157 88 63 30 462 21 1 23 16 94 162 220 145 119 308 246 62 0 0 0 0 0 0 0 0 0 0
0 0 0 0 0 0 0 0 0 0 0 0 0 50 339 184 63 0 0 0 0 163 177 450 188 57 1 2 57 313 120 369 421 428 381 480 270 284 117 52 0 0 0 0 0 0 0 0 0
0 0 0 0 0 0 0 0 0 0 0 0 0 3 283 258 150 3 0 0 101 236 235 885 612 246 109 1 9 95 162 42 253 601 309 340 126 252 119 45 104 0 0 5 0 2 0 0 0
0 0 0 0 0 0 0 0 0 0 0 0 0 0 180 71 23 53 6 2 50 242 185 1038 692 260 181 246 218 202 154 20 138 145 195 116 45 37 0 0 0 0 0 0 0 0 0 0 0
0 0 0 0 0 0 0 0 0 0 0 0 0 0 115 169 131 126 142 71 76 271 171 672 609 183 236 2 191 156 126 68 73 28 14 12 22 0 0 0 0 0 0 0 0 0 0 0 0
0 0 0 0 0 0 0 0 0 0 0 0 0 0 12 151 214 151 123 94 133 131 287 762 899 95 11 124 99 127 20 22 11 0 0 0 0 0 0 0 0 0 0 0 0 0 0 0 0
0 0 0 0 0 0 0 0 0 0 0 0 0 0 0 1 20 24 15 110 130 27 165 659 972 96 2 44 57 38 0 0 0 0 0 0 2 0 12 0 0 4 13 5 0 0 0 0 0
0 0 0 0 0 0 0 0 0 0 0 0 0 0 0 13 24 37 69 99 201 101 142 184 566 110 14 58 16 5 12 0 3 1 0 0 0 0 0 0 0 11 14 22 12 5 0 0 0
0 0 0 0 0 0 0 0 0 0 0 0 0 0 0 0 25 31 8 12 76 71 183 417 572 24 0 51 20 11 0 1 0 0 0 0 0 0 0 0 0 0 0 0 0 0 0 0 0
0 0 0 0 0 0 0 0 0 0 0 0 0 0 0 0 6 60 24 76 85 105 85 531 422 6 3 43 29 0 0 0 0 0 0 0 0 0 0 0 0 0 0 0 0 0 0 0 0
0 0 0 0 0 0 0 0 0 0 0 0 0 0 0 35 141 11 0 0 69 245 106 66 20 0 0 4 0 0 0 0 0 0 0 0 0 0 0 0 0 0 0 0 0 0 0 0 0
0 0 0 0 0 0 0 0 0 0 0 0 0 0 0 0 0 0 0 12 31 21 2 0 0 0 0 0 0 0 0 0 0 0 0 0 0 0 0 0 0 0 0 0 0 0 0 0 0
0 0 0 0 0 0 0 0 0 0 0 0 0 0 0 0 0 0 0 0 0 0 0 0 0 0 0 0 0 0 0 0 0 0 0 0 0 0 0 0 0 0 0 0 0 0 0 0 0
0 0 0 0 0 0 0 5 0 0 0 0 0 0 0 0 0 0 0 0 0 0 0 0 0 0 0 0 0 0 0 0 0 0 0 0 0 0 0 0 0 0 0 0 0 0 0 0 0
0 0 0 0 0 0 1 28 48 0 0 0 0 0 0 0 0 0 0 0 0 0 0 0 0 0 0 0 0 0 0 0 0 0 0 0 0 0 0 0 0 0 0 0 0 0 5 2 0
0 0 0 0 0 3 2 51 3 0 0 0 0 0 0 0 0 0 0 0 0 0 0 0 0 0 0 0 0 0 0 0 0 0 0 0 0 0 0 0 0 0 4 12 3 4 0 0 0
0 0 6 74 27 21 18 1 31 0 0 0 0 0 0 0 0 0 0 0 0 0 0 0 0 0 0 0 0 0 0 0 0 0 0 0 0 0 0 0 1 6 5 4 1 2 3 0 0
0 0 9 0 17 17 0 0 0 0 0 0 0 0 0 1 0 0 0 0 1 1 0 1 1 0 0 0 0 0 0 0 0 0 0 0 0 0 0 0 1 0 0 0 2 2 0 1 4
0 0 0 0 0 0 0 45 0 0 0 0 0 0 5 10 21 17 13 5 0 0 0 0 1 8 0 0 0 0 0 0 0 0 0 0 0 0 0 0 0 0 0 2 0 0 0 7 7
0 0 0 0 0 0 0 0 16 5 1 0 0 0 0 0 5 9 0 0 0 0 1 1 0 0 0 0 0 0 0 0 0 0 0 0 0 0 0 5 6 10 5 9 6 2 1 6 10
0 2 0 0 0 0 0 0 0 0 0 0 0 0 0 0 0 0 0 0 0 0 0 0 0 0 0 0 0 0 0 0 1 1 0 0 0 0 9 11 6 6 6 11 4 2 5 1 0
0 0 0 0 0 0 0 0 0 0 0 0 0 0 0 0 0 0 0 0 0 0 0 0 0 0 0 0 0 0 3 0 0 0 0 0 1 4 10 13 6 10 6 2 4 2 8 10 22
CIN
-0 -0 -0 -0 -0 -0 -0 -5 -10 -24 -0 -0 -0 -0 -11 -75 -60 -59 -113 -58 -43 -58 -64 -71 -69 -45 -46 -51 -40 -42 -34 -15 -19 -29 -25 -28 -37 -59 -82 -87 -70 -51 -26 -21 -19 -34 -68 -94 -95
-0 -0 -0 -0 -0 -0 -0 -10 -8 -0 -0 -0 -0 -7 -24 -44 -106 -154 -122 -8 -24 -18 -37 -47 -55 -41 -39 -26 -13 -4 -11 -25 -23 -35 -30 -26 -33 -41 -58 -94 -98 -50 -31 -25 -43 -73 -134 -204 -229
-0 -0 -0 -0 -0 -0 -0 -12 -68 -0 -0 -1 -1 -19 -20 -50 -15 -78 -93 -3 -9 -35 -80 -66 -35 -15 -5 -1 -0 -0 -8 -20 -24 -10 -1 -3 -21 -58 -110 -113 -59 -17 -14 -21 -26 -42 -91 -130 -189
-0 -0 -0 -0 -0 -0 -0 -9 -0 -0 -0 -3 -10 -32 -50 -0 -0 -2 -101 -38 -32 -100 -146 -137 -105 -76 -55 -53 -36 -30 -30 -44 -42 -22 -12 -32 -57 -104 -87 -28 -29 -66 -105 -159 -174 -211 -256 -245 -210
-0 -0 -0 -0 -25 -20 -9 -1 -0 -7 -2 -0 -8 -2 -8 -20 -0 -0 -75 -137 -134 -169 -195 -249 -259 -223 -202 -197 -187 -165 -130 -102 -67 -58 -64 -66 -73 -86 -120 -181 -237 -269 -0 -0 -0 -0 -0 -0 -0
-0 -0 -0 -0 -10 -3 -2 -0 -15 -14 -8 -0 -3 -6 -4 -87 -0 -0 -0 -0 -0 -181 -0 -0 -0 -0 -0 -0 -270 -208 -174 -141 -120 -97 -112 -129 -165 -174 -201 -293 -86 -0 -0 -0 -0 -0 -0 -0 -0
-0 -0 -0 -0 -1 -0 -0 -0 -0 -0 -3 -1 -1 -8 -19 -40 -0 -0 -0 -0 -0 -0 -0 -0 -0 -0 -0 -0 -141 -228 -222 -223 -285 -294 -285 -272 -284 -314 -0 -72 -0 -0 -0 -0 -0 -0 -0 -0 -0
-0 -0 -0 -0 -0 -0 -0 -0 -0 -0 -0 -0 -0 -10 -48 -76 -0 -0 -0 -0 -0 -113 -101 -102 -139 -114 -145 -11 -0 -0 -279 -16 -306 -251 -234 -199 -145 -192 -0 -176 -0 -0 -0 -0 -0 -0 -0 -0 -0
-0 -0 -0 -0 -0 -0 -0 -0 -0 -0 -0 -0 -0 -0 -78 -119 -0 -0 -0 -0 -0 -77 -66 -87 -94 -125 -28 -193 -85 -229 -259 -156 -134 -97 -77 -103 -49 -63 -143 -0 -0 -0 -0 -0 -0 -0 -0 -0 -0
-0 -0 -0 -0 -0 -0 -0 -0 -0 -0 -0 -0 -0 -57 -58 -115 -130 -0 -0 -0 -0 -39 -21 -12 -30 -77 -30 -8 -129 -68 -99 -63 -46 -27 -14 -10 -10 -5 -15 -54 -0 -0 -0 -0 -0 -0 -0 -0 -0
-0 -0 -0 -0 -0 -0 -0 -0 -0 -0 -0 -0 -0 -4 -71 -78 -92 -75 -0 -0 -22 -6 -5 -15 -20 -37 -32 -18 -37 -24 -12 -34 -15 -16 -38 -35 -39 -10 -8 -9 -28 -0 -0 -11 -0 -5 -0 -1 -0
-0 -0 -0 -0 -0 -0 -0 -0 -0 -0 -0 -0 -0 -0 -58 -87 -112 -75 -4 -6 -33 -9 -22 -12 -22 -39 -43 -37 -23 -21 -36 -66 -32 -40 -55 -64 -77 -63 -0 -0 -0 -0 -0 -0 -0 -0 -0 -0 -0
-0 -0 -0 -0 -0 -0 -0 -0 -0 -0 -0 -0 -0 -0 -46 -33 -31 -19 -4 -24 -24 -10 -22 -6 -27 -44 -52 -5 -58 -60 -53 -77 -73 -100 -84 -130 -92 -0 -0 -0 -0 -0 -0 -0 -0 -0 -0 -0 -0
-0 -0 -0 -0 -0 -0 -0 -0 -0 -0 -0 -0 -0 -0 -59 -23 -9 -27 -13 -3 -8 -10 -11 -10 -21 -67 -69 -62 -80 -65 -121 -87 -27 -0 -0 -0 -0 -0 -0 -0 -0 -0 -0 -0 -0 -0 -0 -0 -0
-0 -0 -0 -0 -0 -0 -0 -0 -0 -0 -0 -0 -0 -0 -0 -3 -6 -35 -34 -3 -4 -19 -11 -11 -15 -122 -7 -87 -94 -68 -0 -0 -0 -0 -0 -0 -86 -0 -76 -0 -0 -70 -64 -75 -0 -0 -0 -0 -0
-0 -0 -0 -0 -0 -0 -0 -0 -0 -0 -0 -0 -0 -0 -0 -2 -3 -13 -13 -1 -2 -5 -64 -50 -13 -119 -122 -72 -120 -92 -89 -0 -55 -1 -0 -0 -0 -0 -0 -0 -0 -55 -58 -64 -67 -82 -0 -0 -0
-0 -0 -0 -0 -0 -0 -0 -0 -0 -0 -0 -0 -0 -0 -0 -0 -2 -7 -25 -20 -11 -16 -19 -11 -17 -76 -0 -107 -76 -77 -0 -45 -0 -0 -0 -0 -0 -0 -0 -0 -0 -0 -0 -0 -0 -0 -0 -0 -0
-0 -0 -0 -0 -0 -0 -0 -0 -0 -0 -0 -0 -0 -0 -0 -0 -2 -18 -23 -8 -9 -14 -19 -10 -29 -37 -55 -46 -58 -0 -0 -0 -0 -0 -0 -0 -0 -0 -0 -0 -0 -0 -0 -0 -0 -0 -0 -0 -0
-0 -0 -0 -5 -0 -0 -0 -0 -0 -0 -0 -0 -0 -0 -0 -22 -48 -98 -0 -0 -68 -39 -82 -111 -156 -0 -0 -57 -0 -0 -0 -0 -0 -0 -0 -0 -0 -0 -0 -0 -0 -0 -0 -0 -0 -0 -0 -0 -0
-0 -0 -0 -0 -0 -0 -0 -0 -0 -0 -0 -0 -0 -0 -0 -0 -0 -0 -0 -125 -149 -140 -32 -0 -0 -0 -0 -0 -0 -0 -0 -0 -0 -0 -0 -0 -0 -0 -0 -0 -0 -0 -0 -0 -0 -0 -0 -0 -0
-0 -0 -0 -0 -0 -0 -0 -0 -0 -0 -0 -0 -0 -0 -0 -0 -0 -0 -0 -0 -0 -0 -0 -0 -0 -0 -0 -0 -0 -0 -0 -0 -0 -0 -0 -0 -0 -0 -0 -0 -0 -0 -0 -0 -0 -0 -0 -0 -0
-0 -0 -0 -0 -0 -0 -0 -3 -0 -0 -0 -0 -0 -0 -0 -0 -0 -0 -0 -0 -0 -0 -0 -0 -0 -0 -0 -0 -0 -0 -0 -0 -0 -0 -0 -0 -0 -0 -0 -0 -0 -0 -0 -0 -0 -0 -0 -0 -0
-0 -0 -0 -0 -0 -0 -10 -20 -21 -0 -0 -0 -0 -0 -0 -0 -0 -0 -0 -0 -0 -0 -0 -0 -0 -0 -0 -0 -0 -0 -0 -0 -0 -0 -0 -0 -0 -0 -0 -0 -0 -0 -0 -0 -0 -1 -9 -6 -0
-0 -0 -0 -0 -0 -28 -1 -10 -21 -0 -0 -0 -0 -0 -0 -0 -0 -0 -0 -0 -0 -0 -0 -0 -0 -0 -0 -0 -0 -0 -0 -0 -0 -0 -0 -0 -0 -0 -0 -0 -0 -0 -2 -5 -27 -40 -0 -0 -0
-0 -0 -10 -12 -3 -11 -21 -24 -36 -0 -0 -0 -0 -0 -0 -0 -0 -1 -1 -0 -0 -0 -0 -0 -0 -0 -0 -3 -0 -0 -0 -0 -0 -0 -0 -0 -0 -0 -0 -0 -0 -3 -8 -24 -38 -43 -30 -20 -9
-0 -0 -31 -1 -16 -12 -0 -0 -0 -0 -0 -0 -0 -0 -0 -6 -0 -0 -0 -0 -4 -2 -0 -1 -5 -0 -0 -0 -0 -0 -0 -0 -0 -0 -0 -0 -0 -0 -0 -0 -3 -1 -0 -0 -61 -45 -1 -31 -21
-0 -0 -0 -0 -0 -0 -0 -24 -13 -0 -0 -0 -0 -0 -2 -2 -1 -2 -5 -2 -0 -0 -0 -0 -4 -12 -1 -0 -0 -0 -0 -0 -0 -0 -0 -0 -0 -0 -0 -0 -0 -0 -0 -63 -27 -0 -3 -16 -9
-0 -0 -0 -0 -0 -0 -0 -0 -24 -28 -15 -0 -0 -0 -0 -0 -3 -7 -1 -0 -0 -0 -13 -12 -0 -15 -0 -0 -0 -0 -0 -0 -0 -0 -0 -0 -0 -0 -0 -3 -3 -2 -2 -1 -2 -3 -4 -2 -3
-0 -1 -0 -0 -0 -0 -0 -0 -0 -0 -0 -0 -0 -0 -4 -0 -0 -0 -0 -0 -0 -0 -0 -0 -0 -0 -0 -0 -0 -0 -0 -0 -2 -4 -0 -0 -0 -0 -3 -2 -1 -1 -1 -9 -13 -18 -16 -12 -0
-0 -0 -0 -0 -0 -0 -0 -0 -0 -0 -0 -0 -0 -0 -0 -0 -0 -0 -0 -0 -0 -0 -1 -0 -0 -0 -0 -0 -0 -0 -1 -0 -0 -0 -0 -0 -2 -4 -2 -1 -0 -1 -1 -5 -3 -5 -3 -3 -4
Wind_Speed
22 21 20 17 15 15 20 12 10 12 13 17 19 19 19 21 17 13 13 12 16 16 15 14 15 16 17 18 19 19 20 19 20 20 20 20 21 22 23 24 24 25 25 25 26 27 28 29 29
19 21 13 14 16 21 12 9 11 13 13 15 17 16 20 20 17 15 14 13 15 17 16 16 15 16 16 17 18 18 19 19 20 20 19 19 20 21 22 22 23 24 25 24 24 25 26 27 28
21 18 14 13 16 27 9 7 10 13 14 14 15 21 21 16 17 14 14 14 19 17 17 16 16 16 16 17 17 18 18 18 19 20 19 20 21 21 23 23 24 24 24 24 25 25 25 27 27
6 12 17 15 20 13 5 10 11 12 13 15 15 16 19 19 16 14 15 16 16 17 17 17 17 17 16 16 16 16 17 18 19 20 20 21 22 22 22 23 23 24 25 25 26 26 27 26 27
19 14 16 17 10 10 10 11 11 12 12 12 17 16 18 18 16 16 16 15 17 17 17 16 15 16 16 16 17 17 18 18 18 19 20 20 21 21 22 22 23 23 24 25 26 26 27 27 27
13 11 19 16 8 10 12 13 13 10 12 15 14 15 17 16 15 13 13 14 14 16 16 15 16 17 18 18 18 18 18 18 19 19 19 19 20 21 21 22 23 24 25 26 26 27 27 27 28
19 19 25 4 6 9 11 13 12 13 14 14 12 15 14 18 18 19 15 13 15 16 16 18 18 18 19 19 18 18 18 18 18 19 18 18 19 20 21 21 23 24 25 25 26 26 26 26 27
14 26 20 6 7 8 11 11 13 14 15 13 16 9 14 17 25 13 12 15 14 13 14 15 17 16 17 19 18 18 18 17 18 18 18 17 17 18 20 20 23 24 24 24 25 26 27 26 25
24 23 6 6 5 8 9 10 13 14 13 12 12 11 16 15 18 19 17 17 15 15 15 15 16 16 15 17 17 17 16 17 17 16 17 17 17 16 18 19 21 22 22 22 22 23 25 24 26
13 20 5 10 14 9 9 9 11 9 10 9 10 5 12 14 19 18 17 16 14 13 14 14 15 15 15 16 15 14 16 16 16 16 20 19 22 19 21 18 19 19 20 21 21 21 21 23 26
17 14 10 10 14 12 8 10 9 13 9 9 21 8 11 14 17 15 14 14 12 13 13 13 13 15 15 16 17 17 17 19 18 20 22 22 22 22 24 24 20 21 19 23 23 24 22 26 26
12 13 11 10 12 12 7 10 15 18 9 8 12 13 14 15 14 13 14 14 13 12 13 12 12 14 15 16 16 18 19 19 20 21 21 22 23 24 25 25 26 26 28 27 25 28 28 26 25
11 12 11 10 11 14 14 16 17 20 10 10 12 14 13 14 13 13 13 13 10 11 10 11 12 12 13 14 16 17 17 19 18 20 22 22 23 24 25 25 26 28 27 27 29 31 30 30 30
9 11 8 12 11 16 19 18 19 21 9 11 11 12 13 12 12 12 10 8 11 10 10 10 10 11 11 13 14 14 16 18 18 19 22 22 23 24 25 27 28 28 28 28 30 28 26 25 24
16 17 16 17 14 15 19 21 23 9 10 9 10 9 8 9 10 9 9 8 8 7 5 2 5 12 11 12 12 12 15 18 19 19 18 19 22 24 26 27 27 27 28 30 30 29 29 29 28
22 22 21 12 15 15 9 21 12 9 10 9 7 7 6 7 7 8 9 7 7 7 11 14 9 11 12 11 12 13 16 19 18 17 19 18 22 24 27 28 29 29 31 31 32 33 33 34 34
20 23 19 15 11 13 12 21 11 9 9 8 6 5 6 6 5 6 8 6 5 5 9 6 9 11 10 11 11 13 16 16 21 22 21 24 27 27 29 31 32 33 33 34 36 36 35 36 37
18 21 15 18 10 12 22 17 13 17 17 6 2 2 2 5 4 5 8 9 13 15 16 16 11 14 10 12 14 16 16 16 19 22 23 26 26 29 33 34 36 37 39 39 39 40 40 40 40
17 16 17 13 14 21 21 18 16 20 15 14 12 13 12 15 14 13 13 15 15 17 19 15 14 16 18 17 18 22 24 26 25 26 25 27 28 32 36 37 38 39 41 41 41 41 41 40 39
19 19 20 18 19 17 13 9 12 16 17 16 14 13 12 13 14 15 16 17 17 17 17 17 18 20 21 20 20 21 24 24 24 24 30 31 33 36 40 41 39 38 39 40 40 40 41 40 38
14 19 18 21 19 14 16 10 8 12 13 15 17 15 14 14 14 15 16 16 16 17 18 18 19 20 22 25 22 25 26 27 28 32 34 35 38 41 37 39 39 39 38 40 41 40 40 42 41
19 17 19 18 17 15 5 17 5 6 10 14 15 15 16 16 16 15 16 15 16 18 19 19 20 21 21 23 24 26 28 30 33 34 37 39 35 34 38 40 40 41 40 42 40 40 41 41 43
19 21 20 20 16 16 12 12 2 4 8 11 14 15 16 18 18 17 16 16 17 18 19 21 21 22 23 24 25 27 32 34 35 33 34 37 36 38 40 40 42 42 43 42 40 39 40 36 38
20 18 16 17 14 17 15 12 15 7 9 11 14 17 18 18 17 17 16 16 17 18 21 23 24 25 23 24 28 31 31 32 35 36 36 38 39 41 41 43 42 42 40 40 38 37 36 36 37
22 21 19 18 12 18 16 16 13 8 10 9 13 16 18 20 21 20 20 21 21 22 23 24 29 32 32 28 28 30 32 34 36 37 38 41 41 40 42 42 41 41 40 39 37 36 36 36 37
20 20 18 19 20 19 16 20 11 10 11 13 15 17 16 17 18 18 20 21 22 25 28 29 28 30 31 30 30 30 32 34 35 37 38 38 39 40 40 42 42 39 37 38 38 36 36 38 38
20 20 18 16 18 20 16 15 12 11 12 13 16 19 19 21 20 21 22 24 26 27 28 29 29 27 30 33 33 33 34 35 36 36 36 37 37 39 42 42 41 39 40 38 37 38 40 39 38
21 18 19 19 19 19 21 21 16 13 14 16 20 23 26 26 27 25 27 30 29 30 31 30 31 31 32 35 35 36 35 34 34 34 36 36 39 42 41 41 41 40 39 37 37 38 37 34 32
18 19 19 17 16 18 21 16 19 19 17 22 25 25 24 24 27 30 30 31 31 32 32 31 33 34 36 36 35 33 33 33 32 35 36 38 40 40 40 40 40 39 38 35 33 32 30 29 32
19 20 19 19 19 17 17 19 18 18 21 25 24 25 25 26 30 31 31 33 34 35 34 35 35 35 35 33 34 34 34 34 35 36 37 38 37 37 38 38 39 37 35 34 33 32 31 31 31
Wind_Direction
272 264 257 285 300 295 291 321 347 337 344 5 8 10 12 7 353 357 36 40 54 50 58 45 53 51 44 39 35 32 33 30 33 37 31 27 19 13 9 2 359 356 355 351 346 340 335 325 320
281 259 305 306 294 287 301 326 346 358 15 19 18 3 10 13 34 54 47 59 49 58 50 48 55 54 44 37 33 33 33 34 36 34 39 39 30 24 22 17 14 11 5 5 3 357 348 341 331
256 257 294 298 296 282 295 332 19 33 33 24 6 15 8 27 34 43 52 53 69 53 51 48 50 45 36 28 25 28 25 21 11 17 34 38 37 34 20 15 11 12 15 17 14 10 2 351 344
3 292 288 294 290 341 29 33 46 16 8 8 36 15 26 27 42 51 63 65 54 49 55 53 49 41 29 17 6 357 350 341 353 14 16 13 12 13 17 14 11 13 11 7 4 1 357 348 345
240 282 278 288 317 354 12 28 17 9 9 27 7 34 33 38 54 64 63 58 57 57 58 49 37 30 19 7 2 0 6 10 13 13 13 14 19 21 19 16 14 10 6 4 1 356 349 342 337
265 309 285 280 321 358 14 5 3 58 46 15 27 41 37 57 60 55 57 59 50 61 61 45 42 36 38 36 30 31 25 24 28 28 27 23 21 19 12 6 1 358 355 353 352 349 346 344 341
260 283 285 6 342 8 358 357 359 2 4 20 33 42 53 82 77 86 69 58 62 66 60 66 55 49 42 41 42 42 43 44 37 34 35 36 33 28 20 9 2 358 358 355 354 354 353 349 343
163 257 260 30 352 8 10 9 10 14 19 12 311 22 89 87 117 64 60 72 62 55 50 62 64 66 58 47 49 52 54 53 48 45 39 39 34 31 21 17 5 360 357 356 354 351 347 344 342
242 267 53 15 7 7 19 12 347 323 13 329 296 257 91 89 99 105 94 96 78 72 61 58 43 33 64 56 54 58 56 53 50 45 39 33 32 31 23 12 9 7 3 2 359 355 350 347 340
328 313 23 7 5 22 31 20 20 26 15 324 267 346 69 89 114 111 113 104 90 80 87 51 53 40 44 42 57 66 52 52 48 40 22 25 11 14 12 14 12 11 6 5 2 358 356 350 343
296 349 18 357 337 357 31 13 334 269 277 250 206 250 77 95 116 111 114 109 106 99 89 70 40 38 33 31 28 32 40 27 29 25 14 13 12 12 6 7 11 4 5 1 357 354 353 345 344
342 9 8 6 325 302 350 300 262 231 278 323 90 91 96 114 112 115 127 124 111 108 94 77 63 53 35 22 30 26 20 21 17 15 15 12 8 5 4 2 358 356 353 354 355 349 345 346 345
342 337 324 317 279 260 271 249 240 231 334 336 53 80 91 106 109 116 132 121 94 104 97 88 71 64 50 40 29 25 23 18 19 14 13 10 7 4 0 359 356 352 352 351 348 343 342 339 337
335 281 283 247 260 247 229 240 248 227 54 83 78 95 102 105 123 112 105 87 110 101 103 105 93 72 50 35 25 21 19 14 12 11 8 8 4 0 357 354 351 348 348 347 344 344 342 342 340
226 225 233 237 257 259 241 238 216 51 74 88 88 98 107 97 99 92 97 101 97 103 113 87 97 69 36 24 18 14 14 7 4 4 6 7 2 358 352 350 348 346 344 342 340 339 336 334 332
201 215 220 263 262 274 271 242 132 61 73 94 96 102 110 105 93 84 81 95 83 47 17 309 94 42 23 14 10 6 5 1 360 2 359 3 357 354 349 346 343 343 340 339 337 333 329 327 325
218 215 228 269 311 324 143 273 66 61 20 19 32 73 73 44 79 75 71 60 82 63 27 31 6 22 22 6 4 0 357 358 355 352 358 355 350 351 347 343 339 336 335 334 331 328 327 325 322
266 220 288 275 359 348 257 253 8 343 340 6 41 18 72 70 45 86 66 44 7 354 354 359 16 4 19 10 356 352 352 354 355 354 348 349 347 346 342 338 334 333 329 327 326 324 322 321 319
272 282 277 359 339 304 264 307 332 336 358 4 6 352 358 6 27 20 8 360 359 358 360 7 360 358 347 348 345 345 344 344 345 345 348 345 343 340 337 334 331 329 327 326 325 323 322 321 321
280 288 283 320 331 324 333 341 354 356 351 4 12 13 22 16 13 7 1 355 359 0 359 0 356 351 347 346 347 346 342 341 342 345 342 341 339 337 331 328 329 329 327 326 326 325 322 320 321
318 296 315 306 333 349 330 335 357 11 14 16 22 30 22 12 6 6 2 360 1 359 358 358 356 350 346 343 346 342 340 338 335 331 329 331 328 328 329 330 331 330 329 326 324 322 321 319 318
309 337 328 331 337 343 92 346 29 37 14 19 23 17 15 13 12 11 10 7 4 359 357 355 353 351 350 344 340 337 335 332 330 330 327 328 332 334 332 329 329 328 327 325 323 323 320 318 315
325 321 324 323 330 326 334 338 35 48 356 5 22 19 7 2 4 2 4 1 358 356 354 351 347 344 343 341 338 336 332 332 331 333 334 333 335 332 330 329 328 327 325 323 322 322 321 321 318
329 331 334 331 333 326 328 337 338 352 8 15 12 6 3 359 359 360 1 1 360 357 350 345 343 343 342 339 339 335 335 336 335 335 334 333 332 330 329 328 327 326 326 326 327 327 326 323 320
335 327 325 330 333 327 340 333 341 358 9 4 0 2 356 352 350 354 354 352 349 348 346 344 339 337 337 338 340 340 339 337 335 335 333 332 331 332 331 331 329 328 327 326 327 326 325 323 320
5 345 342 328 328 335 339 332 343 7 3 360 358 358 359 359 356 354 352 350 350 346 342 340 343 340 341 340 340 341 339 337 335 335 333 332 333 332 332 332 331 333 332 329 327 325 323 321 318
11 9 12 3 351 338 348 13 10 5 356 356 352 350 350 348 347 350 351 349 345 344 346 345 343 342 343 343 340 338 337 335 335 335 334 333 335 334 332 331 331 330 329 328 326 323 320 318 316
26 27 15 4 352 343 335 337 347 349 353 355 351 344 340 341 343 347 345 343 345 344 345 346 345 342 340 339 337 336 335 336 336 336 335 338 336 334 332 332 332 331 332 330 330 328 326 325 324
37 27 21 16 7 350 338 343 347 346 344 338 340 341 347 347 342 341 346 350 350 347 344 344 342 340 336 337 337 338 337 336 337 338 338 337 335 335 334 334 333 331 331 332 332 330 330 328 326
29 21 17 7 2 357 347 336 342 346 344 342 339 343 345 347 345 344 344 343 343 344 343 340 338 336 338 339 338 337 337 340 338 337 337 337 337 337 337 337 335 335 336 336 335 333 331 328 325